Погода в Мензелинске

Россия / Республика Татарстан     55°43′11″N   53°06′05″E
темп.,
°C
ветер,
м/с
пор.,
м/с
влажн.,
%
обл.,
%
осадки,
мм/ч
давл.,
гПа
погр.,
м
5 декабря, вс
вс500:000зюз61081100 0.0 1009719
03:00−1зюз51086100 0.0 1011592
06:00−3зюз59896 0.0 1011384
09:00−3зюз598967 0.0 1013509
12:00−2з588188 0.0 1014833
15:00−3зюз478299 0.1 1016717
18:00−3зсз4781100 0.0 1017620
21:00−4сз3586100 0.1 1019500
6 декабря, пн
пн600:00−6ссз4479100 0.1 1020444
03:00−7ссз447897 0.1 1022505
06:00−9с457864 0.0 1023434
09:00−10ссз34705 0.0 1025406
12:00−10ссз44655 0.0 1026475
15:00−10ссз35725 0.0 1028400
18:00−11ссз34785 0.0 1030341
21:00−12с338013 0.0 1031263
7 декабря, вт
вт700:00−12с228183 0.0 1032193
03:00−12св128088 0.0 1033163
06:00−12св22805 0.0 1034129
09:00−12в227798 0.0 1035155
12:00−10вюв33685 0.0 1036268
15:00−10вюв357474 0.0 1035159
18:00−10вюв477973 0.0 1035199
21:00−9юв4975100 0.0 1034293
8 декабря, ср
ср800:00−8юв5971100 0.0 1034294
03:00−7юв51066100 0.0 1032309
06:00−5юв61260100 0.1 1030344
09:00−5ююв61386100 0.9 1030437
12:00−3ю61495100 1.2 1028452
15:00−1ю61488100 1.5 1028466
18:00−1ю61489100 0.0 1028350
21:00−1ю51289100 0.0 1028320
9 декабря, чт
чт900:00−1ю4991100 0.0 1029225
03:00−2ю4991100 0.0 1029212
06:00−2ююв4990100 0.0 1029192
09:00−2ююв4986100 0.0 1029207
12:00−1ююв51079100 0.0 1029274
15:00−2ююв4980100 0.0 1029188
18:00−2ююв488178 0.0 1028156
21:00−3ююв4980100 0.0 1028191